START_TIME,STEP,MOV.,M34,t_acc.,L5,t_acc.,L18,t_acc.,L14,t_acc.
1981-08-25 06:00:25.690 ,0,0,0.,12.0,0.,12.0,0.,12.0,0.,12.0
1981-08-25 06:00:37.690 ,0,0,0.,12.0,0.,12.0,0.,12.0,0.,12.0
1981-08-25 06:00:53.890 ,0,0,,0,,0,,0,,0
1981-08-25 06:01:05.890 ,0,0,0.,12.0,0.,12.0,0.,12.0,0.,12.0
1981-08-25 06:01:13.690 ,0,0,0.,12.0,0.,12.0,0.,12.0,0.,12.0
1981-08-25 06:01:25.690 ,0,0,0.,12.0,0.,12.0,0.,12.0,0.,12.0
1981-08-25 06:01:37.690 ,2,1,0.,12.0,0.,12.0,0.,12.0,0.,12.0
1981-08-25 06:01:49.690 ,2,1,0.,12.0,0.,12.0,0.,12.0,0.,12.0
1981-08-25 06:02:01.690 ,2,0,0.,12.0,0.,12.0,0.,12.0,0.,12.0
1981-08-25 06:02:13.690 ,2,0,0.,12.0,0.,12.0,0.,12.0,0.,12.0
1981-08-25 06:02:25.690 ,3,1,0.,12.0,0.,12.0,0.,12.0,0.,12.0
1981-08-25 06:02:37.690 ,3,1,0.,12.0,0.,12.0,0.,12.0,0.,12.0
1981-08-25 06:02:49.690 ,3,0,0.,12.0,0.,12.0,0.,12.0,0.,12.0
1981-08-25 06:03:01.690 ,3,0,0.,12.0,0.,12.0,0.,12.0,0.,12.0
1981-08-25 06:03:13.690 ,4,1,0.,12.0,0.,12.0,0.,12.0,0.,12.0
1981-08-25 06:03:25.690 ,4,1,0.,12.0,0.,12.0,0.,12.0,0.,12.0
1981-08-25 06:03:37.690 ,4,0,0.,12.0,0.,12.0,0.,12.0,0.,12.0
1981-08-25 06:03:49.690 ,4,0,0.,12.0,0.,12.0,0.,12.0,0.,12.0
1981-08-25 06:04:01.690 ,5,1,0.,12.0,0.,12.0,0.,12.0,0.,12.0
1981-08-25 06:04:13.690 ,5,1,0.,12.0,0.,12.0,0.,12.0,0.,12.0
1981-08-25 06:04:25.690 ,5,0,0.,12.0,0.,12.0,0.,12.0,0.,12.0
1981-08-25 06:04:37.690 ,5,0,0.,12.0,0.,12.0,0.,12.0,0.,12.0
1981-08-25 06:04:49.690 ,6,1,0.,12.0,0.,12.0,0.,12.0,0.,12.0
1981-08-25 06:05:01.690 ,6,1,0.,12.0,0.,12.0,0.,12.0,0.,12.0
1981-08-25 06:05:13.690 ,6,0,0.,12.0,0.,12.0,0.,12.0,0.,12.0
1981-08-25 06:05:25.690 ,6,0,0.,12.0,0.,12.0,0.,12.0,0.,12.0
1981-08-25 06:05:37.690 ,7,1,0.,12.0,0.,12.0,0.,12.0,0.,12.0
1981-08-25 06:05:49.690 ,7,1,0.,12.0,0.,12.0,0.,12.0,0.,12.0
1981-08-25 06:06:01.690 ,7,0,0.,12.0,0.,12.0,0.,12.0,0.,12.0
1981-08-25 06:06:13.690 ,7,0,0.,12.0,0.,12.0,0.,12.0,0.,12.0
1981-08-25 06:06:25.690 ,7,1,0.,12.0,0.,12.0,0.,12.0,0.,12.0
1981-08-25 06:06:37.690 ,7,1,0.,12.0,0.,12.0,0.,12.0,0.,12.0
1981-08-25 06:06:49.690 ,7,0,0.,12.0,0.,12.0,0.,12.0,0.,12.0
1981-08-25 06:07:01.690 ,7,0,0.,12.0,0.,12.0,0.,12.0,0.,12.0
1981-08-25 06:07:13.690 ,6,1,0.,12.0,0.,12.0,0.,12.0,0.,12.0
1981-08-25 06:07:25.690 ,6,1,0.,12.0,0.,12.0,0.,12.0,0.,12.0
1981-08-25 06:07:37.690 ,6,0,0.,12.0,0.,12.0,0.,12.0,0.,12.0
1981-08-25 06:07:49.690 ,6,0,0.,12.0,0.,12.0,0.,12.0,0.,12.0
1981-08-25 06:08:01.690 ,5,1,0.,12.0,0.,12.0,0.,12.0,0.,12.0
1981-08-25 06:08:13.690 ,5,1,0.,12.0,0.,12.0,0.,12.0,0.,12.0
1981-08-25 06:08:25.690 ,5,0,0.,12.0,0.,12.0,0.,12.0,0.,12.0
1981-08-25 06:08:37.690 ,5,0,0.,12.0,0.,12.0,0.,12.0,0.,12.0
1981-08-25 06:08:49.690 ,4,1,0.,12.0,0.,12.0,0.,12.0,0.,12.0
1981-08-25 06:09:01.690 ,4,1,0.,12.0,0.,12.0,0.,12.0,0.,12.0
1981-08-25 06:09:13.690 ,4,0,0.,12.0,0.,12.0,0.,12.0,0.,12.0
1981-08-25 06:09:25.690 ,4,0,0.,12.0,0.,12.0,0.,12.0,0.,12.0
1981-08-25 06:09:37.690 ,3,1,0.,12.0,0.,12.0,0.,12.0,0.,12.0
1981-08-25 06:09:49.690 ,3,1,0.,12.0,0.,12.0,0.,12.0,0.,12.0
1981-08-25 06:10:01.690 ,3,0,0.,12.0,0.,12.0,0.,12.0,0.,12.0
1981-08-25 06:10:13.690 ,3,0,0.,12.0,0.,12.0,0.,12.0,0.,12.0
1981-08-25 06:10:25.690 ,2,1,0.,12.0,0.,12.0,0.,12.0,0.,12.0
1981-08-25 06:10:37.690 ,2,1,0.,12.0,0.,12.0,0.,12.0,0.,12.0
1981-08-25 06:10:49.690 ,2,0,0.,12.0,0.,12.0,0.,12.0,0.,12.0
1981-08-25 06:11:01.690 ,2,0,0.,12.0,0.,12.0,0.,12.0,0.,12.0
1981-08-25 06:11:13.690 ,1,1,0.,12.0,0.,12.0,0.,12.0,0.,12.0
1981-08-25 06:11:25.690 ,1,1,0.,12.0,0.,12.0,0.,12.0,0.,12.0
1981-08-25 06:11:37.690 ,1,0,0.,12.0,0.,12.0,0.,12.0,0.,12.0
1981-08-25 06:11:49.690 ,1,0,0.,12.0,0.,12.0,0.,12.0,0.,12.0
1981-08-25 06:12:01.690 ,0,1,1.,12.0,0.,12.0,0.,12.0,0.,12.0
1981-08-25 06:12:13.690 ,0,1,0.,12.0,0.,12.0,0.,12.0,0.,12.0
1981-08-25 06:12:25.690 ,0,0,0.,12.0,0.,12.0,0.,12.0,0.,12.0
1981-08-25 06:12:37.690 ,0,0,0.,12.0,0.,12.0,0.,12.0,0.,12.0
1981-08-25 06:12:49.690 ,0,1,0.,12.0,0.,12.0,0.,12.0,0.,12.0
1981-08-25 06:13:01.690 ,0,1,0.,12.0,0.,12.0,0.,12.0,0.,12.0
1981-08-25 06:13:13.690 ,0,0,0.,12.0,0.,12.0,0.,12.0,0.,12.0
1981-08-25 06:13:25.690 ,0,0,0.,12.0,0.,12.0,0.,12.0,0.,12.0
1981-08-25 06:13:37.690 ,1,1,0.,12.0,0.,12.0,0.,12.0,0.,12.0
1981-08-25 06:13:49.690 ,1,1,0.,12.0,0.,12.0,0.,12.0,0.,12.0
1981-08-25 06:14:01.690 ,1,0,0.,12.0,0.,12.0,0.,12.0,0.,12.0
1981-08-25 06:14:13.690 ,1,0,0.,12.0,0.,12.0,0.,12.0,0.,12.0
1981-08-25 06:14:25.690 ,2,1,0.,12.0,0.,12.0,0.,12.0,0.,12.0
1981-08-25 06:14:37.690 ,2,1,0.,12.0,0.,12.0,0.,12.0,0.,12.0
1981-08-25 06:14:49.690 ,2,0,0.,12.0,0.,12.0,0.,12.0,0.,12.0
1981-08-25 06:15:01.690 ,2,0,0.,12.0,0.,12.0,0.,12.0,0.,12.0
1981-08-25 06:15:13.690 ,3,1,0.,12.0,0.,12.0,0.,12.0,0.,12.0
1981-08-25 06:15:25.690 ,3,1,0.,12.0,0.,12.0,0.,12.0,0.,12.0
1981-08-25 06:15:37.690 ,3,0,0.,12.0,0.,12.0,0.,12.0,0.,12.0
1981-08-25 06:15:49.690 ,3,0,0.,12.0,0.,12.0,0.,12.0,0.,12.0
1981-08-25 06:16:01.690 ,4,1,0.,12.0,0.,12.0,0.,12.0,0.,12.0
1981-08-25 06:16:13.690 ,4,1,0.,12.0,0.,12.0,0.,12.0,0.,12.0
1981-08-25 06:16:25.690 ,4,0,0.,12.0,0.,12.0,0.,12.0,0.,12.0
1981-08-25 06:16:37.690 ,4,0,0.,12.0,0.,12.0,0.,12.0,0.,12.0
1981-08-25 06:16:49.690 ,5,1,0.,12.0,0.,12.0,0.,12.0,0.,12.0
1981-08-25 06:17:01.690 ,5,1,0.,12.0,0.,12.0,0.,12.0,0.,12.0
1981-08-25 06:17:13.690 ,5,0,0.,12.0,0.,12.0,0.,12.0,0.,12.0
1981-08-25 06:17:25.690 ,5,0,0.,12.0,0.,12.0,0.,12.0,0.,12.0
1981-08-25 06:17:37.690 ,6,1,0.,12.0,0.,12.0,0.,12.0,0.,12.0
1981-08-25 06:17:49.690 ,6,1,0.,12.0,0.,12.0,0.,12.0,0.,12.0
1981-08-25 06:18:01.690 ,6,0,0.,12.0,0.,12.0,0.,12.0,0.,12.0
1981-08-25 06:18:13.690 ,6,0,0.,12.0,0.,12.0,0.,12.0,0.,12.0
1981-08-25 06:18:25.690 ,7,1,0.,12.0,0.,12.0,0.,12.0,0.,12.0
1981-08-25 06:18:37.690 ,7,1,0.,12.0,0.,12.0,0.,12.0,0.,12.0
1981-08-25 06:18:49.690 ,7,0,0.,12.0,0.,12.0,0.,12.0,0.,12.0
1981-08-25 06:19:01.690 ,7,0,0.,12.0,0.,12.0,0.,12.0,0.,12.0
1981-08-25 06:19:13.690 ,7,1,0.,12.0,0.,12.0,0.,12.0,0.,12.0
1981-08-25 06:19:25.690 ,7,1,0.,12.0,0.,12.0,0.,12.0,0.,12.0
1981-08-25 06:19:37.690 ,7,0,0.,12.0,0.,12.0,0.,12.0,0.,12.0
1981-08-25 06:19:49.690 ,7,0,0.,12.0,0.,12.0,0.,12.0,0.,12.0
1981-08-25 06:20:01.690 ,6,1,0.,12.0,0.,12.0,0.,12.0,0.,12.0
1981-08-25 06:20:13.690 ,6,1,0.,12.0,0.,12.0,0.,12.0,0.,12.0
1981-08-25 06:20:25.690 ,6,0,0.,12.0,0.,12.0,0.,12.0,0.,12.0
1981-08-25 06:20:37.690 ,6,0,0.,12.0,0.,12.0,0.,12.0,0.,12.0
1981-08-25 06:20:49.690 ,5,1,0.,12.0,0.,12.0,0.,12.0,0.,12.0
1981-08-25 06:21:01.690 ,5,1,0.,12.0,0.,12.0,0.,12.0,0.,12.0
1981-08-25 06:21:13.690 ,5,0,0.,12.0,0.,12.0,0.,12.0,0.,12.0
1981-08-25 06:21:25.690 ,5,0,0.,12.0,0.,12.0,0.,12.0,0.,12.0
1981-08-25 06:21:37.690 ,4,1,0.,12.0,0.,12.0,0.,12.0,0.,12.0
1981-08-25 06:21:49.690 ,4,1,0.,12.0,0.,12.0,0.,12.0,0.,12.0
1981-08-25 06:22:01.690 ,4,0,0.,12.0,0.,12.0,0.,12.0,0.,12.0
1981-08-25 06:22:13.690 ,4,0,0.,12.0,0.,12.0,0.,12.0,0.,12.0
1981-08-25 06:22:25.690 ,3,1,0.,12.0,0.,12.0,0.,12.0,0.,12.0
1981-08-25 06:22:37.690 ,3,1,0.,12.0,0.,12.0,0.,12.0,0.,12.0
1981-08-25 06:22:49.690 ,3,0,0.,12.0,0.,12.0,0.,12.0,0.,12.0
1981-08-25 06:23:01.690 ,3,0,0.,12.0,0.,12.0,0.,12.0,0.,12.0
1981-08-25 06:23:13.690 ,2,1,0.,12.0,0.,12.0,0.,12.0,0.,12.0
1981-08-25 06:23:25.690 ,2,1,0.,12.0,0.,12.0,0.,12.0,0.,12.0
1981-08-25 06:23:37.690 ,2,0,0.,12.0,0.,12.0,0.,12.0,0.,12.0
1981-08-25 06:23:49.690 ,2,0,0.,12.0,0.,12.0,0.,12.0,0.,12.0
1981-08-25 06:24:01.690 ,1,1,0.,12.0,0.,12.0,0.,12.0,0.,12.0
1981-08-25 06:24:13.690 ,1,1,0.,12.0,1.,12.0,0.,12.0,0.,12.0
1981-08-25 06:24:25.690 ,1,0,0.,12.0,0.,12.0,0.,12.0,0.,12.0
1981-08-25 06:24:37.690 ,1,0,0.,12.0,0.,12.0,0.,12.0,0.,12.0
1981-08-25 06:24:49.690 ,0,1,0.,12.0,0.,12.0,0.,12.0,0.,12.0
1981-08-25 06:25:01.690 ,0,1,0.,12.0,0.,12.0,0.,12.0,0.,12.0
1981-08-25 06:25:13.690 ,0,0,0.,12.0,0.,12.0,0.,12.0,0.,12.0
1981-08-25 06:25:25.690 ,0,0,0.,12.0,0.,12.0,0.,12.0,0.,12.0
1981-08-25 06:25:37.690 ,0,1,0.,12.0,0.,12.0,0.,12.0,0.,12.0
1981-08-25 06:25:49.690 ,0,1,0.,12.0,0.,12.0,0.,12.0,0.,12.0
1981-08-25 06:26:01.690 ,0,0,0.,12.0,0.,12.0,0.,12.0,0.,12.0
1981-08-25 06:26:13.690 ,0,0,0.,12.0,0.,12.0,0.,12.0,0.,12.0
1981-08-25 06:26:25.690 ,1,1,0.,12.0,0.,12.0,0.,12.0,0.,12.0
1981-08-25 06:26:37.690 ,1,1,0.,12.0,0.,12.0,0.,12.0,0.,12.0
1981-08-25 06:26:49.690 ,1,0,0.,12.0,0.,12.0,0.,12.0,0.,12.0
1981-08-25 06:27:01.690 ,1,0,0.,12.0,0.,12.0,0.,12.0,0.,12.0
1981-08-25 06:27:13.690 ,2,1,0.,12.0,0.,12.0,0.,12.0,0.,12.0
1981-08-25 06:27:25.690 ,2,1,0.,12.0,0.,12.0,0.,12.0,0.,12.0
1981-08-25 06:27:37.690 ,2,0,0.,12.0,0.,12.0,0.,12.0,0.,12.0
1981-08-25 06:27:49.690 ,2,0,0.,12.0,0.,12.0,0.,12.0,0.,12.0
1981-08-25 06:28:01.690 ,3,1,0.,12.0,0.,12.0,0.,12.0,0.,12.0
1981-08-25 06:28:13.690 ,3,1,0.,12.0,0.,12.0,0.,12.0,0.,12.0
1981-08-25 06:28:25.690 ,3,0,0.,12.0,0.,12.0,0.,12.0,0.,12.0
1981-08-25 06:28:37.690 ,3,0,0.,12.0,0.,12.0,0.,12.0,0.,12.0
1981-08-25 06:28:49.690 ,4,1,0.,12.0,0.,12.0,0.,12.0,0.,12.0
1981-08-25 06:29:01.690 ,4,1,0.,12.0,0.,12.0,0.,12.0,0.,12.0
1981-08-25 06:29:13.690 ,4,0,0.,12.0,0.,12.0,0.,12.0,0.,12.0
1981-08-25 06:29:25.690 ,4,0,0.,12.0,0.,12.0,0.,12.0,0.,12.0
1981-08-25 06:29:37.690 ,5,1,0.,12.0,1.,12.0,0.,12.0,0.,12.0
1981-08-25 06:29:49.690 ,5,1,0.,12.0,0.,12.0,0.,12.0,0.,12.0
1981-08-25 06:30:01.690 ,5,0,0.,12.0,0.,12.0,0.,12.0,0.,12.0
1981-08-25 06:30:13.690 ,5,0,0.,12.0,0.,12.0,0.,12.0,0.,12.0
1981-08-25 06:30:25.690 ,6,1,0.,12.0,0.,12.0,0.,12.0,0.,12.0
1981-08-25 06:30:37.690 ,6,1,0.,12.0,0.,12.0,0.,12.0,0.,12.0
1981-08-25 06:30:49.690 ,6,0,0.,12.0,0.,12.0,0.,12.0,0.,12.0
1981-08-25 06:31:01.690 ,6,0,0.,12.0,0.,12.0,0.,12.0,0.,12.0
1981-08-25 06:30:25.690 ,6,1,0.,12.0,0.,12.0,0.,12.0,0.,12.0
1981-08-25 06:30:37.690 ,6,1,0.,12.0,0.,12.0,0.,12.0,0.,12.0
1981-08-25 06:30:49.690 ,6,0,0.,12.0,0.,12.0,0.,12.0,0.,12.0
1981-08-25 06:31:01.690 ,6,0,0.,12.0,0.,12.0,0.,12.0,0.,12.0
1981-08-25 06:31:13.690 ,7,1,0.,12.0,0.,12.0,0.,12.0,0.,12.0
1981-08-25 06:31:25.690 ,7,1,0.,12.0,0.,12.0,0.,12.0,0.,12.0
1981-08-25 06:31:37.690 ,7,0,0.,12.0,0.,12.0,0.,12.0,0.,12.0
1981-08-25 06:31:49.690 ,7,0,0.,12.0,0.,12.0,0.,12.0,0.,12.0
1981-08-25 06:32:01.690 ,7,1,0.,12.0,0.,12.0,0.,12.0,0.,12.0
1981-08-25 06:32:13.690 ,7,1,0.,12.0,0.,12.0,0.,12.0,0.,12.0
1981-08-25 06:32:25.690 ,7,0,0.,12.0,0.,12.0,0.,12.0,0.,12.0
1981-08-25 06:32:37.690 ,7,0,0.,12.0,0.,12.0,0.,12.0,0.,12.0
1981-08-25 06:32:49.690 ,6,1,0.,12.0,0.,12.0,0.,12.0,0.,12.0
1981-08-25 06:33:01.690 ,6,1,1.,12.0,0.,12.0,0.,12.0,0.,12.0
1981-08-25 06:33:13.690 ,6,0,0.,12.0,0.,12.0,0.,12.0,0.,12.0
1981-08-25 06:33:25.690 ,6,0,0.,12.0,0.,12.0,0.,12.0,0.,12.0
1981-08-25 06:33:37.690 ,5,1,0.,12.0,0.,12.0,0.,12.0,0.,12.0
1981-08-25 06:33:49.690 ,5,1,0.,12.0,0.,12.0,0.,12.0,0.,12.0
1981-08-25 06:34:01.690 ,5,0,0.,12.0,0.,12.0,0.,12.0,0.,12.0
1981-08-25 06:34:13.690 ,5,0,0.,12.0,0.,12.0,0.,12.0,0.,12.0
1981-08-25 06:34:25.690 ,4,1,0.,12.0,0.,12.0,0.,12.0,0.,12.0
1981-08-25 06:34:37.690 ,4,1,0.,12.0,0.,12.0,0.,12.0,0.,12.0
1981-08-25 06:34:49.690 ,4,0,0.,12.0,0.,12.0,0.,12.0,0.,12.0
1981-08-25 06:35:01.690 ,4,0,0.,12.0,0.,12.0,0.,12.0,0.,12.0
1981-08-25 06:35:13.690 ,3,1,0.,12.0,0.,12.0,0.,12.0,0.,12.0
1981-08-25 06:35:25.690 ,3,1,0.,12.0,0.,12.0,0.,12.0,0.,12.0
1981-08-25 06:35:37.690 ,3,0,0.,12.0,0.,12.0,0.,12.0,0.,12.0
1981-08-25 06:35:49.690 ,3,0,0.,12.0,0.,12.0,0.,12.0,0.,12.0
1981-08-25 06:36:01.690 ,2,1,0.,12.0,0.,12.0,0.,12.0,0.,12.0
1981-08-25 06:36:13.690 ,2,1,0.,12.0,0.,12.0,0.,12.0,0.,12.0
1981-08-25 06:36:25.690 ,2,0,0.,12.0,0.,12.0,0.,12.0,0.,12.0
1981-08-25 06:36:37.690 ,2,0,0.,12.0,0.,12.0,0.,12.0,0.,12.0
1981-08-25 06:36:49.690 ,1,1,0.,12.0,0.,12.0,0.,12.0,0.,12.0
1981-08-25 06:37:01.690 ,1,1,0.,12.0,0.,12.0,0.,12.0,0.,12.0
1981-08-25 06:37:13.690 ,1,0,0.,12.0,0.,12.0,0.,12.0,0.,12.0
1981-08-25 06:37:25.690 ,1,0,0.,12.0,0.,12.0,0.,12.0,0.,12.0
1981-08-25 06:37:37.690 ,0,1,0.,12.0,0.,12.0,0.,12.0,0.,12.0
1981-08-25 06:37:49.690 ,0,1,0.,12.0,0.,12.0,0.,12.0,0.,12.0
1981-08-25 06:38:01.690 ,0,0,0.,12.0,0.,12.0,0.,12.0,0.,12.0
1981-08-25 06:38:13.690 ,0,0,0.,12.0,0.,12.0,0.,12.0,0.,12.0
1981-08-25 06:38:25.690 ,0,1,0.,12.0,0.,12.0,0.,12.0,0.,12.0
1981-08-25 06:38:37.690 ,0,1,0.,12.0,0.,12.0,0.,12.0,0.,12.0
1981-08-25 06:38:49.690 ,0,0,0.,12.0,0.,12.0,0.,12.0,0.,12.0
1981-08-25 06:39:01.690 ,0,0,0.,12.0,0.,12.0,0.,12.0,0.,12.0
1981-08-25 06:39:13.690 ,1,1,0.,12.0,0.,12.0,0.,12.0,0.,12.0
1981-08-25 06:39:25.690 ,1,1,0.,12.0,0.,12.0,0.,12.0,0.,12.0
1981-08-25 06:39:37.690 ,1,0,0.,12.0,0.,12.0,0.,12.0,0.,12.0
1981-08-25 06:39:49.690 ,1,0,0.,12.0,0.,12.0,0.,12.0,0.,12.0
1981-08-25 06:40:01.690 ,2,1,0.,12.0,0.,12.0,0.,12.0,0.,12.0
1981-08-25 06:40:13.690 ,2,1,0.,12.0,0.,12.0,0.,12.0,0.,12.0
1981-08-25 06:40:25.690 ,2,0,0.,12.0,0.,12.0,0.,12.0,0.,12.0
1981-08-25 06:40:37.690 ,2,0,0.,12.0,0.,12.0,0.,12.0,0.,12.0
1981-08-25 06:40:49.690 ,3,1,0.,12.0,0.,12.0,0.,12.0,0.,12.0
1981-08-25 06:41:01.690 ,3,1,0.,12.0,0.,12.0,0.,12.0,0.,12.0
1981-08-25 06:41:13.690 ,3,0,0.,12.0,0.,12.0,0.,12.0,0.,12.0
1981-08-25 06:41:25.690 ,3,0,0.,12.0,0.,12.0,0.,12.0,0.,12.0
1981-08-25 06:41:37.690 ,4,1,0.,12.0,0.,12.0,0.,12.0,0.,12.0
1981-08-25 06:41:49.690 ,4,1,0.,12.0,0.,12.0,0.,12.0,0.,12.0
1981-08-25 06:42:01.690 ,4,0,0.,12.0,0.,12.0,0.,12.0,0.,12.0
1981-08-25 06:42:13.690 ,4,0,0.,12.0,0.,12.0,0.,12.0,0.,12.0
1981-08-25 06:42:25.690 ,5,1,0.,12.0,0.,12.0,0.,12.0,0.,12.0
1981-08-25 06:42:37.690 ,5,1,0.,12.0,0.,12.0,0.,12.0,0.,12.0
1981-08-25 06:42:49.690 ,5,0,0.,12.0,0.,12.0,0.,12.0,0.,12.0
1981-08-25 06:43:01.690 ,5,0,0.,12.0,0.,12.0,0.,12.0,0.,12.0
1981-08-25 06:43:13.690 ,6,1,0.,12.0,0.,12.0,0.,12.0,0.,12.0
1981-08-25 06:43:25.690 ,6,1,0.,12.0,0.,12.0,0.,12.0,0.,12.0
1981-08-25 06:43:37.690 ,6,0,0.,12.0,0.,12.0,0.,12.0,0.,12.0
1981-08-25 06:43:49.690 ,6,0,0.,12.0,0.,12.0,0.,12.0,0.,12.0
1981-08-25 06:44:49.690 ,0,0,0.,12.0,0.,12.0,0.,12.0,0.,12.0
1981-08-25 06:45:01.690 ,0,0,0.,12.0,0.,12.0,0.,12.0,0.,12.0
1981-08-25 06:45:13.690 ,0,0,0.,12.0,0.,12.0,0.,12.0,0.,12.0
1981-08-25 06:45:25.690 ,0,0,0.,12.0,0.,12.0,0.,12.0,0.,12.0
1981-08-25 06:45:37.690 ,6,1,0.,12.0,0.,12.0,0.,12.0,0.,12.0
1981-08-25 06:45:49.690 ,6,1,0.,12.0,0.,12.0,0.,12.0,0.,12.0
1981-08-25 06:46:01.690 ,6,0,0.,12.0,0.,12.0,0.,12.0,0.,12.0
1981-08-25 06:46:13.690 ,6,0,1.,12.0,0.,12.0,0.,12.0,0.,12.0
1981-08-25 06:46:25.690 ,5,1,0.,12.0,0.,12.0,0.,12.0,0.,12.0
1981-08-25 06:46:37.690 ,5,1,0.,12.0,0.,12.0,0.,12.0,0.,12.0
1981-08-25 06:46:49.690 ,5,0,0.,12.0,0.,12.0,0.,12.0,0.,12.0
1981-08-25 06:47:01.690 ,5,0,0.,12.0,0.,12.0,0.,12.0,0.,12.0
1981-08-25 06:47:13.690 ,4,1,0.,12.0,0.,12.0,0.,12.0,0.,12.0
1981-08-25 06:47:25.690 ,4,1,0.,12.0,0.,12.0,0.,12.0,0.,12.0
1981-08-25 06:47:37.690 ,4,0,0.,12.0,0.,12.0,0.,12.0,0.,12.0
1981-08-25 06:47:49.690 ,4,0,0.,12.0,0.,12.0,0.,12.0,0.,12.0
1981-08-25 06:48:01.690 ,3,1,0.,12.0,0.,12.0,0.,12.0,0.,12.0
1981-08-25 06:48:13.690 ,3,1,0.,12.0,0.,12.0,0.,12.0,0.,12.0
1981-08-25 06:48:25.690 ,3,0,0.,12.0,0.,12.0,0.,12.0,0.,12.0
1981-08-25 06:48:37.690 ,3,0,0.,12.0,0.,12.0,0.,12.0,0.,12.0
1981-08-25 06:48:49.690 ,2,1,0.,12.0,0.,12.0,0.,12.0,0.,12.0
1981-08-25 06:49:01.690 ,2,1,0.,12.0,0.,12.0,0.,12.0,0.,12.0
1981-08-25 06:49:13.690 ,2,0,0.,12.0,0.,12.0,0.,12.0,0.,12.0
1981-08-25 06:49:25.690 ,2,0,0.,12.0,0.,12.0,0.,12.0,0.,12.0
1981-08-25 06:49:37.690 ,1,1,0.,12.0,0.,12.0,0.,12.0,0.,12.0
1981-08-25 06:49:49.690 ,1,1,0.,12.0,0.,12.0,0.,12.0,0.,12.0
1981-08-25 06:50:01.690 ,1,0,0.,12.0,0.,12.0,0.,12.0,0.,12.0
1981-08-25 06:50:13.690 ,1,0,0.,12.0,0.,12.0,0.,12.0,0.,12.0
1981-08-25 06:50:25.690 ,0,1,0.,12.0,0.,12.0,0.,12.0,0.,12.0
1981-08-25 06:50:37.690 ,0,1,1.,12.0,0.,12.0,0.,12.0,0.,12.0
1981-08-25 06:50:49.690 ,0,0,0.,12.0,0.,12.0,0.,12.0,0.,12.0
1981-08-25 06:51:01.690 ,0,0,1.,12.0,0.,12.0,0.,12.0,0.,12.0
1981-08-25 06:51:13.690 ,0,1,0.,12.0,0.,12.0,0.,12.0,0.,12.0
1981-08-25 06:51:25.690 ,0,1,0.,12.0,0.,12.0,0.,12.0,0.,12.0
1981-08-25 06:51:37.690 ,0,0,0.,12.0,0.,12.0,0.,12.0,0.,12.0
1981-08-25 06:51:49.690 ,0,0,0.,12.0,0.,12.0,0.,12.0,0.,12.0
1981-08-25 06:52:01.690 ,1,1,0.,12.0,0.,12.0,0.,12.0,0.,12.0
1981-08-25 06:52:13.690 ,1,1,0.,12.0,0.,12.0,0.,12.0,0.,12.0
1981-08-25 06:52:25.690 ,1,0,0.,12.0,0.,12.0,0.,12.0,0.,12.0
1981-08-25 06:52:37.690 ,1,0,0.,12.0,0.,12.0,0.,12.0,0.,12.0
1981-08-25 06:52:49.690 ,2,1,0.,12.0,0.,12.0,0.,12.0,0.,12.0
1981-08-25 06:53:01.690 ,2,1,0.,12.0,0.,12.0,0.,12.0,0.,12.0
1981-08-25 06:53:13.690 ,2,0,0.,12.0,0.,12.0,0.,12.0,0.,12.0
1981-08-25 06:53:25.690 ,2,0,0.,12.0,0.,12.0,0.,12.0,0.,12.0
1981-08-25 06:53:37.690 ,3,1,0.,12.0,0.,12.0,0.,12.0,0.,12.0
1981-08-25 06:53:49.690 ,3,1,0.,12.0,0.,12.0,0.,12.0,0.,12.0
1981-08-25 06:54:01.690 ,3,0,0.,12.0,0.,12.0,0.,12.0,0.,12.0
1981-08-25 06:54:13.690 ,3,0,0.,12.0,0.,12.0,0.,12.0,0.,12.0
1981-08-25 06:54:25.690 ,4,1,0.,12.0,0.,12.0,0.,12.0,0.,12.0
1981-08-25 06:54:37.690 ,4,1,0.,12.0,0.,12.0,0.,12.0,0.,12.0
1981-08-25 06:54:49.690 ,4,0,0.,12.0,0.,12.0,0.,12.0,0.,12.0
1981-08-25 06:55:01.690 ,4,0,1.,12.0,0.,12.0,0.,12.0,0.,12.0
1981-08-25 06:55:13.690 ,5,1,0.,12.0,0.,12.0,0.,12.0,0.,12.0
1981-08-25 06:55:25.690 ,5,1,0.,12.0,0.,12.0,0.,12.0,0.,12.0
1981-08-25 06:55:37.690 ,5,0,0.,12.0,0.,12.0,0.,12.0,0.,12.0
1981-08-25 06:55:49.690 ,5,0,0.,12.0,0.,12.0,0.,12.0,0.,12.0
1981-08-25 06:56:01.690 ,6,1,0.,12.0,0.,12.0,0.,12.0,0.,12.0
1981-08-25 06:56:13.690 ,6,1,0.,12.0,0.,12.0,0.,12.0,0.,12.0
1981-08-25 06:56:25.690 ,6,0,0.,12.0,0.,12.0,0.,12.0,0.,12.0
1981-08-25 06:56:37.690 ,6,0,0.,12.0,0.,12.0,0.,12.0,0.,12.0
1981-08-25 06:56:49.690 ,7,1,0.,12.0,0.,12.0,0.,12.0,0.,12.0
1981-08-25 06:57:01.690 ,7,1,0.,12.0,0.,12.0,0.,12.0,0.,12.0
1981-08-25 06:57:13.690 ,7,0,0.,12.0,0.,12.0,0.,12.0,0.,12.0
1981-08-25 06:57:25.690 ,7,0,0.,12.0,0.,12.0,0.,12.0,0.,12.0
1981-08-25 06:57:37.690 ,7,1,0.,12.0,0.,12.0,0.,12.0,0.,12.0
1981-08-25 06:57:49.690 ,7,1,0.,12.0,0.,12.0,0.,12.0,0.,12.0
1981-08-25 06:58:01.690 ,0,0,0.,12.0,0.,12.0,0.,12.0,0.,12.0
1981-08-25 06:58:13.690 ,0,0,0.,12.0,0.,12.0,0.,12.0,0.,12.0
1981-08-25 07:01:20.890 ,0,0,,0,,0,,0,,0
1981-08-25 07:01:32.890 ,0,0,0.,12.0,0.,12.0,0.,12.0,0.,12.0
1981-08-25 07:01:37.690 ,2,1,0.,12.0,0.,12.0,0.,12.0,0.,12.0
1981-08-25 07:01:49.690 ,2,1,0.,12.0,0.,12.0,0.,12.0,0.,12.0
1981-08-25 07:02:01.690 ,2,0,0.,12.0,0.,12.0,0.,12.0,0.,12.0
1981-08-25 07:02:13.690 ,2,0,0.,12.0,0.,12.0,0.,12.0,0.,12.0
1981-08-25 07:02:25.690 ,1,1,0.,12.0,0.,12.0,0.,12.0,0.,12.0
1981-08-25 07:02:37.690 ,1,1,0.,12.0,0.,12.0,0.,12.0,0.,12.0
1981-08-25 07:02:49.690 ,1,0,0.,12.0,0.,12.0,0.,12.0,0.,12.0
1981-08-25 07:03:01.690 ,1,0,0.,12.0,0.,12.0,0.,12.0,0.,12.0
1981-08-25 07:03:13.680 ,0,1,0.,12.0,0.,12.0,0.,12.0,0.,12.0
1981-08-25 07:03:25.690 ,0,1,0.,12.0,0.,12.0,0.,12.0,0.,12.0
1981-08-25 07:03:37.680 ,0,0,0.,12.0,0.,12.0,0.,12.0,0.,12.0
1981-08-25 07:03:49.690 ,0,0,1.,12.0,0.,12.0,0.,12.0,0.,12.0
1981-08-25 07:04:01.680 ,0,1,0.,12.0,0.,12.0,0.,12.0,0.,12.0
1981-08-25 07:04:13.690 ,0,1,0.,12.0,0.,12.0,0.,12.0,0.,12.0
1981-08-25 07:04:25.680 ,0,0,1.,12.0,0.,12.0,0.,12.0,0.,12.0
1981-08-25 07:04:37.680 ,0,0,0.,12.0,0.,12.0,0.,12.0,0.,12.0
1981-08-25 07:04:49.680 ,1,1,1.,12.0,0.,12.0,0.,12.0,0.,12.0
1981-08-25 07:05:01.680 ,1,1,0.,12.0,0.,12.0,0.,12.0,0.,12.0
1981-08-25 07:05:13.680 ,1,0,0.,12.0,0.,12.0,0.,12.0,0.,12.0
1981-08-25 07:05:25.680 ,1,0,0.,12.0,0.,12.0,0.,12.0,0.,12.0
1981-08-25 07:05:37.680 ,2,1,0.,12.0,0.,12.0,0.,12.0,0.,12.0
1981-08-25 07:05:49.680 ,2,1,0.,12.0,0.,12.0,0.,12.0,0.,12.0
1981-08-25 07:06:01.680 ,2,0,0.,12.0,0.,12.0,0.,12.0,0.,12.0
1981-08-25 07:06:13.680 ,2,0,0.,12.0,0.,12.0,0.,12.0,0.,12.0
1981-08-25 07:06:25.680 ,3,1,0.,12.0,0.,12.0,0.,12.0,0.,12.0
1981-08-25 07:06:37.680 ,3,1,0.,12.0,0.,12.0,0.,12.0,0.,12.0
1981-08-25 07:06:49.680 ,3,0,0.,12.0,0.,12.0,0.,12.0,0.,12.0
1981-08-25 07:07:01.680 ,3,0,0.,12.0,0.,12.0,0.,12.0,0.,12.0
1981-08-25 07:07:13.680 ,4,1,0.,12.0,0.,12.0,0.,12.0,0.,12.0
1981-08-25 07:07:25.680 ,4,1,0.,12.0,0.,12.0,0.,12.0,0.,12.0
1981-08-25 07:07:37.680 ,4,0,1.,12.0,0.,12.0,0.,12.0,0.,12.0
1981-08-25 07:07:49.680 ,4,0,0.,12.0,0.,12.0,0.,12.0,0.,12.0
1981-08-25 07:08:01.680 ,5,1,0.,12.0,0.,12.0,0.,12.0,0.,12.0
1981-08-25 07:08:13.680 ,5,1,1.,12.0,0.,12.0,0.,12.0,0.,12.0
1981-08-25 07:08:25.680 ,5,0,1.,12.0,0.,12.0,0.,12.0,0.,12.0
1981-08-25 07:08:37.680 ,5,0,0.,12.0,0.,12.0,0.,12.0,0.,12.0
1981-08-25 07:08:49.680 ,6,1,0.,12.0,0.,12.0,0.,12.0,0.,12.0
1981-08-25 07:09:01.680 ,6,1,2.,12.0,0.,12.0,0.,12.0,0.,12.0
1981-08-25 07:09:13.680 ,6,0,0.,12.0,0.,12.0,0.,12.0,0.,12.0
1981-08-25 07:09:25.680 ,6,0,0.,12.0,0.,12.0,0.,12.0,0.,12.0
1981-08-25 07:09:37.680 ,7,1,0.,12.0,0.,12.0,0.,12.0,0.,12.0
1981-08-25 07:09:49.680 ,7,1,0.,12.0,0.,12.0,0.,12.0,0.,12.0
1981-08-25 07:10:01.680 ,7,0,0.,12.0,0.,12.0,0.,12.0,0.,12.0
1981-08-25 07:10:13.680 ,7,0,0.,12.0,0.,12.0,0.,12.0,0.,12.0
1981-08-25 07:10:25.680 ,7,1,0.,12.0,0.,12.0,0.,12.0,0.,12.0
1981-08-25 07:10:37.680 ,7,1,0.,12.0,0.,12.0,0.,12.0,0.,12.0
1981-08-25 07:10:49.680 ,7,0,0.,12.0,0.,12.0,0.,12.0,0.,12.0
1981-08-25 07:11:01.680 ,7,0,0.,12.0,0.,12.0,0.,12.0,0.,12.0
1981-08-25 07:11:13.680 ,6,1,0.,12.0,0.,12.0,0.,12.0,0.,12.0
1981-08-25 07:11:25.680 ,6,1,0.,12.0,0.,12.0,0.,12.0,0.,12.0
1981-08-25 07:11:37.680 ,6,0,0.,12.0,0.,12.0,0.,12.0,0.,12.0
1981-08-25 07:11:49.680 ,6,0,0.,12.0,0.,12.0,0.,12.0,0.,12.0
1981-08-25 07:12:01.680 ,5,1,1.,12.0,0.,12.0,0.,12.0,0.,12.0
1981-08-25 07:12:13.680 ,5,1,0.,12.0,0.,12.0,0.,12.0,0.,12.0
1981-08-25 07:12:25.680 ,5,0,0.,12.0,0.,12.0,0.,12.0,0.,12.0
1981-08-25 07:12:37.680 ,5,0,0.,12.0,0.,12.0,0.,12.0,0.,12.0
1981-08-25 07:12:49.680 ,4,1,0.,12.0,0.,12.0,0.,12.0,0.,12.0
1981-08-25 07:13:01.680 ,4,1,0.,12.0,0.,12.0,0.,12.0,0.,12.0
1981-08-25 07:13:13.680 ,4,0,0.,12.0,0.,12.0,0.,12.0,0.,12.0
1981-08-25 07:13:25.680 ,4,0,0.,12.0,0.,12.0,0.,12.0,0.,12.0
1981-08-25 07:13:37.680 ,3,1,1.,12.0,0.,12.0,0.,12.0,0.,12.0
1981-08-25 07:13:49.680 ,3,1,0.,12.0,0.,12.0,0.,12.0,0.,12.0
1981-08-25 07:14:01.680 ,3,0,0.,12.0,0.,12.0,0.,12.0,0.,12.0
1981-08-25 07:14:13.680 ,3,0,0.,12.0,0.,12.0,0.,12.0,0.,12.0
1981-08-25 07:14:25.680 ,2,1,0.,12.0,0.,12.0,0.,12.0,0.,12.0
1981-08-25 07:14:37.680 ,2,1,0.,12.0,0.,12.0,0.,12.0,0.,12.0
1981-08-25 07:14:49.680 ,2,0,0.,12.0,0.,12.0,0.,12.0,0.,12.0
1981-08-25 07:15:01.680 ,2,0,0.,12.0,0.,12.0,0.,12.0,0.,12.0
1981-08-25 07:15:13.680 ,1,1,0.,12.0,0.,12.0,0.,12.0,0.,12.0
1981-08-25 07:15:25.680 ,1,1,0.,12.0,0.,12.0,0.,12.0,0.,12.0
1981-08-25 07:15:37.680 ,1,0,0.,12.0,0.,12.0,0.,12.0,0.,12.0
1981-08-25 07:15:49.680 ,1,0,0.,12.0,0.,12.0,0.,12.0,0.,12.0
1981-08-25 07:16:01.680 ,0,1,0.,12.0,0.,12.0,0.,12.0,0.,12.0
1981-08-25 07:16:13.680 ,0,1,0.,12.0,0.,12.0,0.,12.0,0.,12.0
1981-08-25 07:16:25.680 ,0,0,0.,12.0,0.,12.0,0.,12.0,0.,12.0
1981-08-25 07:16:37.680 ,0,0,0.,12.0,0.,12.0,0.,12.0,0.,12.0
1981-08-25 07:16:49.680 ,0,1,1.,12.0,0.,12.0,0.,12.0,0.,12.0
1981-08-25 07:17:01.680 ,0,1,0.,12.0,0.,12.0,0.,12.0,0.,12.0
1981-08-25 07:17:13.680 ,0,0,1.,12.0,0.,12.0,0.,12.0,0.,12.0
1981-08-25 07:17:25.680 ,0,0,0.,12.0,0.,12.0,0.,12.0,0.,12.0
1981-08-25 07:17:37.680 ,1,1,0.,12.0,0.,12.0,0.,12.0,0.,12.0
1981-08-25 07:17:49.680 ,1,1,0.,12.0,0.,12.0,0.,12.0,0.,12.0
1981-08-25 07:18:01.680 ,1,0,0.,12.0,0.,12.0,0.,12.0,0.,12.0
1981-08-25 07:18:13.680 ,1,0,0.,12.0,0.,12.0,0.,12.0,0.,12.0
1981-08-25 07:18:25.680 ,2,1,1.,12.0,0.,12.0,0.,12.0,0.,12.0
1981-08-25 07:18:37.680 ,2,1,0.,12.0,0.,12.0,0.,12.0,0.,12.0
1981-08-25 07:18:49.680 ,2,0,0.,12.0,0.,12.0,0.,12.0,0.,12.0
1981-08-25 07:19:01.680 ,2,0,0.,12.0,0.,12.0,0.,12.0,0.,12.0
1981-08-25 07:19:13.680 ,3,1,0.,12.0,0.,12.0,0.,12.0,0.,12.0
1981-08-25 07:19:25.680 ,3,1,0.,12.0,0.,12.0,0.,12.0,0.,12.0
1981-08-25 07:19:37.680 ,3,0,0.,12.0,0.,12.0,0.,12.0,0.,12.0
1981-08-25 07:19:49.680 ,3,0,0.,12.0,0.,12.0,0.,12.0,0.,12.0
1981-08-25 07:20:01.680 ,4,1,0.,12.0,0.,12.0,0.,12.0,0.,12.0
1981-08-25 07:20:13.680 ,4,1,0.,12.0,0.,12.0,0.,12.0,0.,12.0